{"data":{"norad_id":68860,"intl_designator":"2026-094X","name":"STARLINK-37388","alt_names":[],"object_type":"PAYLOAD","status":"ACTIVE","operator":null,"country":"US","launch_date":"2026-04-26","launch_site_code":"AFWTR","launch_vehicle":null,"mission":null,"orbit_class":"UNKNOWN","rcs_meters":null,"size_class":null,"mass_kg":null,"dimensions":null,"purposes":["comms"],"wikipedia_slug":null,"has_3d_model":false,"image_url":null,"decayed_at":null,"tle_current":{"epoch":"2026-05-25T00:49:46.550784Z","epoch_age_seconds":68195,"freshness":"FRESH","line1":"1 68860U 26094X   26145.03456656  .00037881  00000+0  69456-3 0  9991","line2":"2 68860  97.2846 159.7046 0000812 104.9378 255.1963 15.49200432  4499","mean_motion":15.49200432,"eccentricity":8.12e-5,"inclination_deg":97.2846,"raan_deg":159.7046,"arg_perigee_deg":104.9378,"mean_anomaly_deg":255.1963,"bstar":0.00069456,"rev_number":449,"period_min":92.951174699905,"perigee_km":418.51189635437,"apogee_km":419.61576176901,"semimajor_km":6797.2008290617,"source":"CELESTRAK","updated_at":"2026-05-25T13:38:22.065089Z"}}}